Location: Gniazdowice
(50.2124°N, 20.2673°E)
Time: 23:20:52
(UTC+00:00)

Okean 2 Rocket - Pass Details

Date: 23 May 2024
Orbit: 614 x 637 km, 82.5° (Epoch: 22 June)

Event Time Altitude Azimuth Distance (km) Brightness Sun altitude
Rises 01:09:13 0° 353° (N) 2,898 7.3 -11.5°
Reaches altitude 10° 01:11:30 10° 358° (N) 1,989 6.5 -11.2°
Maximum altitude 01:15:48 53° 76° (ENE) 764 3.9 -10.8°
Drops below altitude 10° 01:20:06 10° 154° (SSE) 1,982 5.4 -10.4°
Sets 01:22:22 0° 159° (SSE) 2,886 6.2 -10.2°
